Regional Weather Roundup
Issued by NWS

Home | Current Version | Previous Version | Text Only | Print | Product List | Glossary Off
Versions: 1 2 3 4 5 6 7 8 9 10 11 12 13 14 15 16 17 18 19 20 21 22 23 24 25 26 27 28 29 30 31 32 33 34 35 36 37 38 39 40 41 42 43 44 45 46 47 48 49 50

992
ASUS43 KLOT 201108
RWRIL

ILLINOIS REGIONAL WEATHER ROUNDUP
NATIONAL WEATHER SERVICE CHICAGO/ROMEOVILLE IL
500 AM CST FRI JAN 20 2017

NOTE: "FAIR" INDICATES FEW OR NO CLOUDS BELOW 12,000 FEET WITH NO
SIGNIFICANT WEATHER AND/OR OBSTRUCTIONS TO VISIBILITY.

* THESE STATIONS ARE NOT UNDER NWS QUALITY CONTROL. THEY ALSO MAY NOT
  REPORT WEATHER SUCH AS PRECIPITATION OR FOG.

ILZ001-002-007-009-015-016-024-201200-
NORTHWEST ILLINOIS

CITY           SKY/WX    TMP DP  RH WIND       PRES   REMARKS
MOLINE         FOG       37  35  92 NE3       29.62S VSB 1/4
STERLING*      LGT RAIN  36  36 100 E5        29.63S VSB 1/2 WCI  32
SAVANNA*       CLOUDY    36  36  99 CALM      29.64R FOG
$$

ILZ003-004-008-010-011-017-018-201200-
NORTH CENTRAL ILLINOIS

CITY           SKY/WX    TMP DP  RH WIND       PRES   REMARKS
ROCKFORD       DRIZZLE   38  36  92 E10       29.64F FOG     WCI  31
FREEPORT*      FOG       35  35  99 NE6       29.65S VSB 1/2 WCI  30
ROCHELLE*      CLOUDY    36  36 100 E7        29.63S FOG     WCI  31
DE KALB*       DRIZZLE   37  37  98 E9        29.63F WCI  31
$$

ILZ005-006-012>014-019>023-201200-
NORTHEAST ILLINOIS

CITY           SKY/WX    TMP DP  RH WIND       PRES   REMARKS
CHICAGO-OHARE  DRIZZLE   38  37  97 NE12      29.63F FOG     WCI  30
CHICAGO-MIDWAY DRIZZLE   37  37 100 NE13G22   29.63F FOG     WCI  29
AURORA         RAIN      39  37  92 NE9       29.62S FOG     WCI  33
LANSING*       LGT RAIN  37  37 100 NE6       29.63S WCI  32
JOLIET*        LGT RAIN  39  39  98 NE6       29.62S WCI  35
WAUKEGAN       FOG       37  36  96 NE10      29.65F VSB 1   WCI  30
DUPAGE AIRPORT LGT RAIN  39  36  89 NE9       29.62S FOG     WCI  33
KANKAKEE*      RAIN      39  38  98 CALM      29.60F
WHEELING       LGT RAIN  38  36  92 NE9       29.65F WCI  31
MORRIS*        LGT RAIN  37  36  97 NE3       29.61F
ROMEOVILLE*    LGT RAIN  37  37 100 NE10      29.62S WCI  30
NORTHERLY ISL    N/A     36  35  96 N8          N/A  WCI  30
$$

LMZ740>746-201200-
SOUTHERN LAKE MICHIGAN

STATION/POSITION SKY/WX   TEMP    WIND        PRES    VSBY  WAVE
                          AIR SEA DIR/SP/G                  HT/PER
                          (F)     (DEG/KT/KT) (MB)    (MI)  (FT/S)
HARRISON CRIB              38      50/ 14/ 15   N/A
BURNHAM HARBOR             36      20/  6/  8   N/A
CALUMET HARBOR             36      10/  7/ 10 1003.0F
BURNS HARBOR               35      80/  8/  9 1003.7F
MICHIGAN CITY              34      40/  9/ 10   N/A
$$

ILZ025>027-034>036-040-047-049-050-058-095>099-201200-
WEST-CENTRAL ILLINOIS

CITY           SKY/WX    TMP DP  RH WIND       PRES   REMARKS
QUINCY         FOG       42  42 100 CALM      29.60R VSB 1/4
GALESBURG*     FOG       36  36 100 N6        29.59F VSB 1/2 WCI  31
MACOMB*        FOG       37  37 100 CALM      29.62S VSB 1/2
JACKSONVILLE*  FOG       41  41  99 CALM      29.61S VSB 1/2
PITTSFIELD*    FOG       43  43 100 CALM      29.61F VSB 1/2
$$

ILZ028>032-037-038-041>044-048-051>054-059>061-201200-
CENTRAL ILLINOIS

CITY           SKY/WX    TMP DP  RH WIND       PRES   REMARKS
PONTIAC        CLOUDY    38  38 100 NE8       29.61S FOG     WCI  33
BLOOMINGTON    CLOUDY    40  39  97 SW5       29.62R FOG
DECATUR        CLOUDY    45  32  60 W5        29.60F HAZE
PEORIA         FOG       39  39 100 NE5       29.61S VSB 1/4
LACON*         FOG       36  36 100 CALM      29.62R VSB 1/4
LINCOLN*       FOG       42  42 100 CALM      29.61R VSB 1
SPRINGFIELD    FOG       44  42  93 CALM      29.60F VSB 1
TAYLORVILLE    FOG       44  44 100 CALM      29.60F VSB 3/4
$$

ILZ033-039-045-046-055>057-062-063-201200-
EAST-CENTRAL ILLINOIS

CITY           SKY/WX    TMP DP  RH WIND       PRES   REMARKS
CHAMPAIGN      LGT RAIN  43  41  93 S7        29.60R FOG
RANTOUL*       LGT RAIN  43  43  99 S7        29.60S
MATTOON        CLOUDY    46  46 100 SW8       29.60S FOG
PARIS*         CLOUDY    45  45 100 SW7       29.61R FOG
$$

ILZ079-100>102-201200-
SOUTHWEST ILLINOIS

CITY           SKY/WX    TMP DP  RH WIND       PRES   REMARKS
ALTON          FOG       45  45 100 CALM      29.61S VSB 1/4
BELLEVILLE     CLOUDY    46  46 100 CALM      29.60S FOG
CAHOKIA*       CLOUDY    48  46  93 S3        29.61S
SPARTA*        CLOUDY    48  48 100 CALM      29.64S
$$

ILZ064>066-069>071-074>076-080>082-084>086-088>090-092>094-201200-
SOUTH-CENTRAL ILLINOIS

CITY           SKY/WX    TMP DP  RH WIND       PRES   REMARKS
CARBONDALE     CLOUDY    51  51 100 S9        29.65S
CAIRO*         CLOUDY    52  51  97 SW8       29.67S
EFFINGHAM*     CLOUDY    48  48 100 SW7       29.63F FOG
MARION         CLOUDY    52  52 100 SW5       29.66R
MT. VERNON     CLOUDY    50  50 100 SW8       29.63F
CENTRALIA*     FOG       49  49 100 W3        29.63R VSB 1
SALEM*         FOG       48  47  95 W3        29.62F VSB 1/4
METROPOLIS*    CLOUDY    54  51  92 SW6       29.68R
$$

ILZ067-068-072-073-078-083-087-091-201200-
SOUTHEAST ILLINOIS

CITY           SKY/WX    TMP DP  RH WIND       PRES   REMARKS
LAWRENCEVILLE  CLOUDY    53  53 100 SW9       29.63R FOG
FLORA*         CLOUDY    52  51  95 SW6       29.63S
FAIRFIELD*     CLOUDY    51  51 100 SW5       29.63S
HARRISBURG*    CLOUDY    54  52  94 W6        29.66S
ROBINSON*      CLOUDY    49  49 100 SW6       29.62S
CARMI*         CLOUDY    54  52  94 SW12      29.64S
$$

ABBREVIATIONS USED IN REMARKS
   TC - TEMPERATURE IN CELSIUS
  WCI - WIND CHILL INDEX
   HX - HEAT INDEX
  VSB - VISIBILITY
$$





USA.gov is the U.S. government's official web portal to all federal, state and local government web resources and services.